Regional Weather Roundup
Issued by NWS Kansas City/Pleasant Hill, MO

Home | Current Version | Previous Version | Graphics & Text | Print | Product List | Glossary Off
Versions: 1 2 3 4 5 6 7 8 9 10 11 12 13 14 15 16 17 18 19 20 21 22 23 24 25 26 27 28 29 30 31 32 33 34 35 36 37 38 39 40 41 42 43 44 45 46 47 48 49 50

000
ASUS43 KEAX 240610
RWREAX

WEATHER ROUNDUP FOR EASTERN KANSAS AND NORTHWEST MISSOURI
NATIONAL WEATHER SERVICE KANSAS CITY/PLEASANT HILL MO
100 AM CDT FRI OCT 24 2014

KSZ040-057-103>105-MOZ028-029-037-043-240700-
...KANSAS CITY METROPOLITAN AREA...

CITY           SKY/WX    TMP DP  RH WIND       PRES   REMARKS
K.C. INTL      PTCLDY    56  56 100 S8        30.08S FOG
6HR MIN TEMP:  54; 6HR MAX TEMP:  57;

K.C. DOWNTOWN  PTCLDY    57  55  93 CALM      30.08S FOG
6HR MIN TEMP:  56; 6HR MAX TEMP:  65;

LEES SUMMIT    PTCLDY    56  55  97 SW9       30.09S FOG
6HR MIN TEMP:  55; 6HR MAX TEMP:  62;

OLATHE - IXD   MOCLDY    55  55 100 S6        30.09S FOG
6HR MIN TEMP:  54; 6HR MAX TEMP:  62;

OLATHE - OJC   FOG       57  57 100 S6        30.08S VSB 1/2
6HR MIN TEMP:  56; 6HR MAX TEMP:  63;

LAWRENCE       PTCLDY    54  53  97 SE3       30.08S FOG

$$

MOZ001>008-011>017-020>025-030>033-038>040-044>046-053-054-240700-
...NORTHERN AND CENTRAL MISSOURI...

CITY           SKY/WX    TMP DP  RH WIND       PRES   REMARKS
ST. JOSEPH     MOCLDY    55  55 100 S3        30.07R FOG
6HR MIN TEMP:  55; 6HR MAX TEMP:  63;

MOSBY          FOG       52  52 100 CALM      30.08S VSB 1/4
WHITEMAN AFB   CLOUDY    60  57  89 SW7       30.09F
6HR MIN TEMP:  60; 6HR MAX TEMP:  63;

CLINTON        PTCLDY    61  57  88 CALM      30.11S FOG
SEDALIA        CLOUDY    62  57  83 SW7       30.11S
6HR MIN TEMP:  62; 6HR MAX TEMP:  64;

WARSAW         NOT AVBL
MARSHALL       CLEAR     61  59  94 SW3       30.10S
CHILLICOTHE      N/A     55  54  96 S5        30.08F
6HR MIN TEMP:  49; 6HR MAX TEMP:  60;

MOBERLY          N/A     55  50  82 SW3       30.09  FOG
KIRKSVILLE     FOG       57  57 100 W6        30.08S VSB 1/4
6HR MIN TEMP:  49; 6HR MAX TEMP:  60;


$$

MOZ041-047>049-056>058-063>065-088>090-097-240700-
...EASTERN AND SOUTHERN MISSOURI...

CITY           SKY/WX    TMP DP  RH WIND       PRES   REMARKS
ST. LOUIS INTL CLOUDY    60  48  64 SW6       30.10S
6HR MIN TEMP:  58; 6HR MAX TEMP:  63;

SPIRIT OF STL  MOCLDY    56  49  77 SW5       30.08F
COLUMBIA       PTCLDY    54  53  97 CALM      30.09S FOG
JEFFERSON CITY CLEAR     53  50  89 E3        30.09F
MEXICO         CLEAR    N/A N/A N/A SW6       30.09F
HANNIBAL       PTCLDY    52  50  93 SW3       30.08R
ROLLA          CLOUDY    54  48  80 S7        30.10F
LEBANON        CLEAR     55  52  88 CALM      30.13S
OSAGE BEACH    CLOUDY    55  50  82 S3        30.10F
SPRINGFIELD    FOG       49  48  97 S3        30.12S VSB 1
BRANSON        CLOUDY    50  48  93 CALM      30.14S
NEVADA         FOG       54  54 100 CALM      30.12S VSB 1/4
JOPLIN         CLEAR     52  52 100 SE6       30.12F FOG
WEST PLAINS    CLOUDY    53  46  77 W5        30.14S

$$

IAZ060-094-KSZ022-034>040-054-083-096-NEZ052-066-093-240700-
...KANSAS...SOUTHEAST NEBRASKA AND IOWA...

CITY           SKY/WX    TMP DP  RH WIND       PRES   REMARKS
TOPEKA         PTCLDY    60  59  96 S8        30.07S
6HR MIN TEMP:  59; 6HR MAX TEMP:  64;

MANHATTAN      PTCLDY    57  55  93 CALM      30.05F FOG
EMPORIA        FOG       57  57 100 S13       30.08S VSB 1
CHANUTE        PTCLDY    55  54  96 SE6       30.10S FOG
WICHITA        PTCLDY    62  58  86 S9        30.07S
OMAHA          MOCLDY    55  49  80 SE9       30.00F
LINCOLN        PTCLDY    53  49  86 S7        30.01F
FALLS CITY     MOCLDY    60  58  92 S12       30.04R
LAMONI         FOG       57  57 100 SW9       30.05S VSB 1/4
DES MOINES     FOG       53  52  96 S8        30.03F VSB 1/4

$$




USA.gov is the U.S. government's official web portal to all federal, state and local government web resources and services.